Regional Weather Roundup
Issued by NWS Wakefield, VA

Home | Current Version | Previous Version | Text Only | Print | Product List | Glossary On
Versions: 1 2 3 4 5 6 7 8 9 10 11 12 13 14 15 16 17 18 19 20 21 22 23 24 25 26 27 28 29 30 31 32 33 34 35 36 37 38 39 40 41 42 43 44 45 46 47 48 49 50
000
ASUS41 KAKQ 182310
RWRAKQ

REGIONAL WEATHER ROUNDUP
NATIONAL WEATHER SERVICE WAKEFIELD VA
700 PM EDT THU SEP 18 2014

Note: "fair" indicates few or no clouds below 12,000 feet with no
significant weather and/or obstructions to visibility. * = Denotes
station may not report precipitation (e.g., rain,snow,etc.),
thunder or fog.

VAZ042-051-052>054-056-190000-
NORTHERN VIRGINIA

CITY           SKY/WX    TMP DP  RH WIND       PRES   REMARKS
WASH NATIONAL  PTCLDY    74  57  55 NE10      30.02R
DULLES         MOCLDY    70  51  51 NE7       30.02R
FORT BELVOIR   MOCLDY    69  63  79 VRB2      30.02R
QUANTICO       CLEAR     71  62  73 SW5       30.02R
FREDERICKSBRG* PTCLDY    72  64  75 CALM      30.01R
STAFFORD*      PTCLDY    68  68 100 CALM      30.05S
WARRENTON      MOCLDY    71  64  79 S3        30.01S
CULPEPER*      CLOUDY    73  55  53 CALM      30.03R
MANASSAS*      PTCLDY    72  54  53 NW3       30.02R
LEESBURG*      PTCLDY    73  54  49 NE5       30.03S
WINCHESTER     MOCLDY    70  46  43 CALM      30.03S
FRONT ROYAL*   CLOUDY    68  52  56 NE5       30.03R
LURAY*         CLOUDY    72  55  56 CALM      30.03R
$$

VAZ048-049-060>072-079>083-190000-
CENTRAL AND SOUTH CENTRAL VIRGINIA...AND NORTH CENTRAL NORTH CAROLINA

CITY           SKY/WX    TMP DP  RH WIND       PRES   REMARKS
RICHMOND       CLOUDY    69  60  73 E7        30.02R
CHESTERFIELD*  CLOUDY    72  55  56 E6        30.03R
PETERSBURG*    CLOUDY    69  62  77 CALM      30.02R
HANOVER        CLOUDY    67  64  90 CALM      30.03S
TAPPAHANNOCK*  MOCLDY    66  63  88 CALM      30.03S
CHARLOTTSVILLE CLOUDY    70  61  73 CALM      30.02R
ORANGE*        CLEAR     68  61  77 CALM      30.03S
LOUISA*        MOCLDY    66  64  94 CALM      30.01S
FARMVILLE*     LGT RAIN  66  66 100 CALM      30.00R
CREWE*         CLOUDY    68  64  87 CALM      30.01R
FORT PICKETT*  CLOUDY    69  64  84 CALM      30.01S
LUNENBURG*     CLOUDY    72  66  81 CALM      30.01R
SOUTH HILL*    CLOUDY    72  64  78 CALM      30.05S
LAWRENCEVILLE* CLOUDY    70  66  89 CALM      30.00S
ROANOKE RAPIDS CLOUDY    70  63  78 CALM      29.99F
RALEIGH        MOCLDY    75  61  61 E7        29.99R
$$

VAZ088>098-190000-
SOUTHEAST VIRGINIA

CITY           SKY/WX    TMP DP  RH WIND       PRES   REMARKS
NORFOLK        CLEAR     70  53  54 E6        30.02R
VIRGINIA BEACH PTCLDY    67  53  61 SE6       30.02R
NORFOLK NAVAL  MOCLDY    70  54  56 E8        30.04R
WEST POINT*    CLOUDY    70  58  65 E3        30.03S
NEWPORT NEWS   MOCLDY    73  56  54 E6        30.02R
LANGLEY AFB    CLOUDY    71  55  57 SE7       30.02R
FORT EUSTIS    CLOUDY    72  50  45 E8        30.00S
WILLIAMSBURG*  CLOUDY    72  59  64 E5        30.03R
HR EXEC AP*    MOCLDY    70  55  60 E6        30.04R
FRANKLIN*      CLOUDY    72  61  68 E3        30.01S
WAKEFIELD      CLOUDY    70  59  68 E3        30.01S
$$

VAZ020-022-025-037-045-190000-
WEST CENTRAL AND SOUTHWEST VIRGINIA

CITY           SKY/WX    TMP DP  RH WIND       PRES   REMARKS
STAUNTON*      MOCLDY    69  56  63 SE3       30.05R
HOT SPRINGS VA CLOUDY    59  38  44 SW3       30.13R
LYNCHBURG      CLOUDY    69  62  78 CALM      30.03R
DANVILLE       CLOUDY    72  64  76 E3        30.01R
SOUTH BOSTON*  NOT AVBL
MARTINSVILLE   CLOUDY    69  67  93 CALM      30.04R
ROANOKE        CLOUDY    71  58  63 SE6       30.04R
BLACKSBURG     MOCLDY    66  61  82 CALM      30.07S
DUBLIN*        CLOUDY    68  58  69 CALM      30.07S
MARION*        CLOUDY    65  56  73 CALM      30.09S
HILLSVILLE*    CLOUDY    64  56  75 CALM      30.08R
RICHLANDS*     MOCLDY    67  55  64 NE3       30.08S
WISE*          PTCLDY    64  50  59 N5        30.09S
ABINGDON*      CLOUDY    69  54  58 NE3       30.05S
$$

MDZ021>025-VAZ099-100-190000-
SOUTHERN MARYLAND AND THE DELMARVA PENINSULA

CITY           SKY/WX    TMP DP  RH WIND       PRES   REMARKS
PATUXENT RIVER MOCLDY    71  52  50 CALM      30.02R
BAY BRIDGE APT   N/A     68  57  68 CALM      30.02S
LEONARDTOWN    MOCLDY    68  54  60 S3        30.03S
DOVER          CLOUDY    69  54  58 SW3       30.01R
GEORGETOWN     CLOUDY    68  56  65 S8        30.03S
EASTON         CLOUDY    68  63  83 CALM      30.06R
CAMBRIDGE      MOCLDY    72  59  64 E5        30.02R
SALISBURY      CLOUDY    70  56  61 SE3       30.02S
OCEAN CITY     CLOUDY    69  52  54 S3        30.02S
WALLOPS ISLAND PTCLDY    69  54  58 S7        30.03S
ACCOMACK*      CLOUDY    64  55  72 CALM      30.02S
$$

NCZ012>017-030>032-190000-
EASTERN NORTH CAROLINA

CITY           SKY/WX    TMP DP  RH WIND       PRES   REMARKS
ELIZABETH CITY CLEAR     68  56  65 E9        30.02R
AHOSKIE*       PTCLDY    70  60  70 SE5       30.01R
EDENTON*       CLEAR     69  57  66 E5        30.02R
CURRITUCK*     CLEAR     70  54  55 E5        30.03R
KILL DEVIL HLS CLEAR     70  56  59 E6        30.01R
MANTEO         CLEAR     70  57  62 NE10      30.02R
CAPE HATTERAS  CLEAR     69  57  65 NE7       30.01R
TARBORO*       CLEAR     74  66  74 CALM      30.00S
GOLDSBORO      CLEAR     75  66  73 E6        29.97S
WASHINGTON     CLEAR     72  59  64 CALM      30.01S
GREENVILLE     CLEAR     73  61  64 SE5       30.02R
NEW BERN       CLEAR     74  60  61 E6        30.01R
WILMINGTON     MOCLDY    75  62  64 E8        29.98R
$$

VAZ048-190000-
ELSEWHERE

CITY           SKY/WX    TMP DP  RH WIND       PRES   REMARKS
HARRISBURG PA  PTCLDY    71  46  40 N5        30.03R
BALTIMORE      PTCLDY    68  60  75 SE3       30.02R
ANNAPOLIS      PTCLDY    69  62  78 E3        30.02R
ANDREWS AFB    CLEAR     69  60  75 NE6       30.02R
WILMINGTON DE  CLEAR     69  56  62 SW3       30.03R
PHILADELPHIA   PTCLDY    70  55  59 SW8       30.02R
WILDWOOD NJ*   CLOUDY    70  52  52 S6        30.03S
ATLANTIC CITY  MOCLDY    69  53  56 S3        30.02R
HENDERSON NC   CLOUDY    72  59  63 CALM      30.00S
GREENSBORO     CLOUDY    72  63  73 E5        30.00R
ROCKY MOUNT    CLEAR     73  62  68 E3        29.99S
FAYETTEVILLE   CLEAR     76  64  66 E5        29.96S
CHARLOTTE      MOCLDY    75  64  68 N7        29.98R
$$

VAZ100-190000-
MARINE

STATION/POSITION TIME  TEMP    WIND        PRES    WAVE   SWELL
                       AIR SEA DIR/SP/G            HT/PER HT/PER
                 (UTC) (F)     (DEG/KT/KT) (MB)    (FT/S) (FT/S)
44066 TX TWR #4  2300   69 74  330/  8/ 10 1016.1F   3/11   3/11
CAPE MAY NJ      2300   70 76  180/  3/  4 1016.1S
LEWES DE         2300   70 74  180/  3/  4 1016.3R
15NM E FENWICK I 2300   70 73              1016.5R   3/11
OCEAN-CITY-INLET 2300   70 72  180/  3/  5 1016.3S
WACHAPREAGUE VA  2300   70 75  140/  4/  6 1016.7S
THOMAS POINT MD  2300   70 74   60/  6/  6 1017.6R
GOOSES REEF MD   2300   72     210/  8/ 10 1016.7R
COVE POINT MD    2300   70     200/  6/  7 1016.1S
SOLOMONS ISLAND  2300      76                N/A
BISHOPS HEAD MD  2300   72 74  190/  5/  6 1015.9S
PINEY POINT MD   2300          190/  8/  9   N/A
POTOMAC MD       2300   73     200/  8/ 10 1015.7S
CAMBRIDGE MD     2300   71 74   40/  3/  7 1016.1R
LEWISETTA VA     2300   71 74  190/  4/  5 1016.0R
RAPPAHANNOCK LGT 2300          130/  9/ 10 1017.0S
STINGRAY PT      2300   72     150/ 10/ 12   N/A
YORK RVR RNG VA  2300   72     150/ 10/ 12 1016.0S
YORKTOWN VA      2300   72 76  150/  6/  7 1016.1F
JAMESTOWN VA     2300   71     130/  8/ 10   N/A
DOMINION TERM VA 2300   73     100/  7/ 11 1016.4S
KIPTOPEKE VA     2300      79  120/  5/  6   N/A
CHES BAY BRIDGE  2300   71 75  100/  8/ 12 1016.1S
CAPE HENRY VA    2300   70     110/  7/ 10 1015.4S
CHESAPEAKE LGHT  2200   70      80/  9/ 10 1017.2R
WILLOUBY STN VA  2300   71      80/  7/  9 1015.2S
S CRANEY ISL VA  2300           80/  9/ 12 1016.1S
CAPE HENRY BUOY  2300      76                N/A     3/12   2/12
1ST LANDING BUOY 2300   71     110/  8/ 12 1016.2S
CAPE CHARLES BUO 2300      75                N/A     3/14   3/14
OFFSHORE WE BUOY 2300      74                N/A     3/12   3/12
64NM E OF VA BCH 2300   72 77   50/ 12/ 14 1016.0R   4/11   3/11
DUCK PIER NC     2300   71 75   60/ 12/ 14 1015.8R
44100 DUCK FRF   2300      75                N/A     4/13   2/13
44056 DUCK FRF   2300                        N/A     4/13   2/13
OREGON INLET NC  2300   71 74   40/ 10/ 15 1016.1F
HATTERAS NC      2300   72 77   40/ 10/ 14 1016.5R
DIAMOND SHLS NC  2300   74      10/ 17/ 23 1015.2R   5/ 5   2/12
CAPE LOOKOUT NC  2200   75      50/ 18/ 20 1015.3R
$$


USA.gov is the U.S. government's official web portal to all federal, state and local government web resources and services.